Weather History for Northeast Philadelphia, PA

Change the Weather History Date:

Friday, February 22, 2013

  Actual Average Record
Temperature  
Mean Temperature 30 °F -  
Max Temperature 37 °F 43 °F 66 °F (1997)
Min Temperature 23 °F 27 °F 15 °F (1999)
Degree Days  
Heating Degree Days 35    
Moisture  
Dew Point 21 °F    
Average Humidity 67    
Maximum Humidity 89    
Minimum Humidity 54    
Precipitation  
Precipitation 0.00 in - - ()
Sea Level Pressure  
Sea Level Pressure 30.35 in    
Wind  
Wind Speed 7 mph (East)    
Max Wind Speed 9 mph    
Max Gust Speed -    
Visibility 10 miles    
Events Rain    
Averages and records for this station are not official NWS values.
T = Trace of Precipitation, MM = Missing Value Source: NWS Daily Summary

Daily Weather History Graph

Daily Weather History Graph

Search for Another Location

Airport:

Trip Planner

Search our weather history database for the weather conditions in past years. The results will help you decide how hot, cold, wet, or windy it might be!

Date:

Astronomy

Feb. 22, 2013 Rise Set
Actual Time 6:43 AM EST 5:44 PM EST
Civil Twilight 6:15 AM EST 6:11 PM EST
Nautical Twilight 5:44 AM EST 6:43 PM EST
Astronomical Twilight 5:13 AM EST 7:14 PM EST
Moon 2:53 PM EST 4:26 AM EST
Length of Visible Light 11h 55m
Length of Day
11h 00m
Waxing Gibbous, 90% of the Moon is Illuminated
Feb 22
Waxing Gibbous
Feb 25
Full
Mar 4
Last Quarter
Mar 11
New
Mar 19
First Quarter

Hourly Weather History & Observations

Time (EST) Temp. Windchill Dew Point Humidity Pressure Visibility Wind Dir Wind Speed Gust Speed Precip Events Conditions
12:54 AM 24.1 °F 15.2 °F 14.0 °F 65% 30.32 in 10.0 mi NNW 8.1 mph - N/A   Clear
1:54 AM 23.0 °F 15.8 °F 14.0 °F 68% 30.34 in 10.0 mi North 5.8 mph - N/A   Clear
2:54 AM 23.0 °F 15.8 °F 14.0 °F 68% 30.36 in 10.0 mi NNW 5.8 mph - N/A   Clear
3:54 AM 23.0 °F 13.1 °F 14.0 °F 68% 30.36 in 10.0 mi NNW 9.2 mph - N/A   Clear
4:54 AM 24.1 °F 15.2 °F 14.0 °F 65% 30.37 in 10.0 mi North 8.1 mph - N/A   Clear
5:54 AM 23.0 °F 17.0 °F 15.1 °F 72% 30.40 in 10.0 mi NNW 4.6 mph - N/A   Clear
6:54 AM 24.1 °F 17.0 °F 15.1 °F 69% 30.41 in 10.0 mi North 5.8 mph - N/A   Clear
7:54 AM 26.1 °F 17.6 °F 16.0 °F 66% 30.43 in 10.0 mi North 8.1 mph - N/A   Clear
8:54 AM 28.0 °F 19.3 °F 17.1 °F 63% 30.43 in 10.0 mi ENE 9.2 mph - N/A   Clear
9:54 AM 28.9 °F 21.9 °F 18.0 °F 64% 30.40 in 10.0 mi East 6.9 mph - N/A   Clear
10:54 AM 32.0 °F 26.4 °F 19.0 °F 59% 30.40 in 10.0 mi East 5.8 mph - N/A   Clear
11:54 AM 34.0 °F 26.6 °F 19.9 °F 56% 30.38 in 10.0 mi East 9.2 mph - N/A   Clear
12:54 PM 35.1 °F 28.6 °F 21.0 °F 57% 30.35 in 10.0 mi East 8.1 mph - N/A   Clear
1:54 PM 37.0 °F 33.3 °F 21.9 °F 54% 30.34 in 10.0 mi SSE 4.6 mph - N/A   Overcast
2:54 PM 37.0 °F 32.4 °F 21.9 °F 54% 30.32 in 10.0 mi SSE 5.8 mph - N/A   Overcast
3:54 PM 37.0 °F 32.4 °F 23.0 °F 57% 30.33 in 10.0 mi ESE 5.8 mph - N/A   Overcast
4:54 PM 37.0 °F 31.0 °F 25.0 °F 62% 30.32 in 10.0 mi SE 8.1 mph - N/A   Overcast
5:54 PM 37.0 °F 31.0 °F 26.1 °F 65% 30.33 in 10.0 mi ESE 8.1 mph - N/A   Overcast
6:54 PM 36.0 °F 29.6 °F 26.1 °F 67% 30.32 in 10.0 mi ESE 8.1 mph - N/A   Overcast
7:52 PM 35.6 °F 29.9 °F 26.6 °F 70% 30.33 in 10.0 mi SE 6.9 mph - N/A   Overcast
7:54 PM 36.0 °F 30.3 °F 27.0 °F 70% 30.33 in 10.0 mi SE 6.9 mph - N/A   Overcast
8:50 PM 35.6 °F 31.7 °F 28.4 °F 75% 30.31 in 10.0 mi SE 4.6 mph - N/A   Overcast
8:54 PM 35.1 °F 30.1 °F 28.0 °F 76% 30.31 in 10.0 mi SE 5.8 mph - N/A   Overcast
9:54 PM 35.1 °F - 28.9 °F 78% 30.31 in 10.0 mi Calm Calm - N/A   Overcast
10:54 PM 34.0 °F 28.0 °F 30.9 °F 89% 30.28 in 10.0 mi East 6.9 mph - 0.00 in Rain Light Rain
11:54 PM 35.1 °F - 32.0 °F 89% 30.28 in 10.0 mi Calm Calm - 0.00 in   Overcast